Home   Weather   Rawalpindi   Past weeks

Flag for Pakistan Past Weather in Rawalpindi, Pakistan — Yesterday and Last 2 Weeks

Now
68 °F

Passing clouds.


Feels Like: 68 °F
Forecast: 56 / 74 °F
Wind: 5 mph from West

Location: Islamabad Airport

Current Time: Feb 27, 2017 at 9:05:32 pm

Latest Report: Feb 27, 2017 at 8:30 pm


Visibility: 2 mi

Pressure: 30.01 "Hg (28.31 "Hg at 501m altitude)

Humidity: 46%

Dew Point: 46 °F

Location of RawalpindiLocation

Past Weather in Rawalpindi — Graph

°F

Rawalpindi Temperature Yesterday

Maximum temperature yesterday: 77 °F (at 2:30 pm)
Minimum temperature yesterday: 48 °F (at 6:00 am)
Average temperature yesterday: 63 °F

High & Low Weather Summary for the Past Weeks

 TemperatureHumidityPressure
High81 °F (Feb 27, 2:00 pm)83% (Feb 20, 12:00 am)30.30 "Hg (Feb 20, 12:00 am)
Low46 °F (Feb 13, 7:00 am)20% (Feb 24, 2:00 pm)29.71 "Hg (Feb 21, 3:00 am)
Average61 °F58%30.04 "Hg
* Reported Feb 12 8:00 pm — Feb 27 8:00 pm, Rawalpindi, Weather by CustomWeather, © 2017

Note: Actual official high and low records may vary slightly from our data, if they occured in-between our weather recording intervals... More about our weather records

Advertising

Rawalpindi Weather History for the Previous 24 Hours

Scroll right to see more
 ConditionsComfort  
Time TempWeatherWind HumidityBarometerVisibility
8:00 pm
Mon, Feb 27
68 °FPassing clouds.5 mph46%30.01 "Hg2 mi
6:30 pm70 °FPassing clouds.9 mph31%30.01 "Hg2 mi
6:00 pm75 °FScattered clouds.12 mph25%30.01 "Hg2 mi
5:30 pm75 °FScattered clouds.12 mph24%29.98 "Hg2 mi
5:00 pm75 °FScattered clouds.12 mph24%29.98 "Hg3 mi
4:30 pm81 °FScattered clouds.12 mph24%29.98 "Hg3 mi
3:00 pm81 °FPartly sunny.9 mph24%30.01 "Hg4 mi
2:30 pm81 °FPassing clouds.12 mph20%30.01 "Hg4 mi
2:00 pm81 °FScattered clouds.12 mph20%30.01 "Hg4 mi
1:30 pm77 °FScattered clouds.7 mph24%30.04 "Hg4 mi
1:00 pm77 °FPassing clouds.7 mph24%30.04 "Hg4 mi
12:00 pm73 °FPassing clouds.7 mph25%30.04 "Hg4 mi
11:30 am70 °FClear.7 mph31%30.07 "Hg4 mi
11:00 am70 °FHaze.7 mph31%30.07 "Hg2 mi
10:30 am66 °FHaze.5 mph46%30.01 "Hg2 mi
10:00 am66 °FHaze.5 mph46%30.01 "Hg3 mi
9:30 am59 °FScattered clouds.5 mph51%30.04 "Hg4 mi
8:30 am52 °FHaze.5 mph67%30.01 "Hg2 mi
8:00 am52 °FHaze.5 mph67%30.01 "Hg2 mi
7:30 am48 °FHaze.5 mph76%29.98 "Hg2 mi
7:00 am48 °FHaze.5 mph76%29.98 "Hg2 mi
6:30 am52 °FHaze.5 mph67%29.98 "Hg2 mi
6:00 am52 °FHaze.5 mph67%29.98 "Hg2 mi
5:00 am52 °FClear.5 mph67%29.95 "Hg4 mi
4:30 am52 °FClear.No wind67%29.95 "Hg4 mi
4:00 am52 °FClear.No wind67%29.95 "Hg4 mi
3:30 am52 °FClear.No wind67%29.98 "Hg4 mi
3:00 am52 °FClear.No wind67%29.98 "Hg4 mi
2:30 am52 °FClear.No wind72%29.98 "Hg4 mi
2:00 am52 °FClear.No wind72%29.98 "Hg4 mi
1:00 am54 °FClear.No wind67%29.98 "Hg4 mi
12:30 am55 °FClear.No wind67%29.98 "Hg4 mi
12:00 am55 °FClear.5 mph67%29.98 "Hg4 mi
11:00 pm
Sun, Feb 26
59 °FClear.5 mph59%29.98 "Hg4 mi
10:30 pm61 °FClear.5 mph55%29.98 "Hg4 mi
10:00 pm61 °FClear.5 mph55%29.98 "Hg4 mi
9:30 pm63 °FClear.5 mph56%29.95 "Hg4 mi
9:00 pm63 °FClear.5 mph56%29.95 "Hg4 mi
Weather by CustomWeather, © 2017

See weather overviewHow to use our weather pages